Regional Weather Roundup
Issued by NWS

Home | Current Version | Previous Version | Graphics & Text | Print | Product List | Glossary On
Versions: 1 2 3 4 5 6 7 8 9 10 11 12 13 14 15 16 17 18 19 20 21 22 23 24 25 26 27 28 29 30 31 32 33 34 35 36 37 38 39 40 41 42 43 44 45 46 47 48 49 50
000
ASUS45 KSLC 150710
RWRUT

UTAH REGIONAL WEATHER ROUNDUP
NATIONAL WEATHER SERVICE SALT LAKE CITY UT
100 AM MDT MON SEP 15 2014

UTZ001>011-023>025-150800-

NORTHERN UTAH

CITY           SKY/WX    TMP DP  RH WIND       PRES   REMARKS
HILL AFB       CLOUDY    67  40  37 E14       30.08R
LOGAN          CLEAR     51  43  74 N3        30.07S
OGDEN          PTCLDY    68  39  34 SE7       30.05R
PROVO AIRPORT  CLEAR     57  48  72 CALM      30.08R
SALT LAKE CITY MOCLDY    70  42  36 E8        30.03R
VERNAL         CLEAR     58  39  49 W7        30.15R
WENDOVER       PTCLDY    64  30  27 W6        30.03R
HEBER CITY     CLEAR     50  39  66 CALM      30.17R
WEST JORDAN    CLEAR     66  39  37 CALM      30.07R

$$

UTZ012>022-026-027-150800-

SOUTHERN UTAH

CITY           SKY/WX    TMP DP  RH WIND       PRES   REMARKS
BRYCE CANYON   CLOUDY    49  39  68 W9        30.31R
CEDAR CITY     CLEAR     57  39  51 NE5       30.14R
MILFORD        CLEAR     64  35  34 S6        30.09R
MOAB/CYNLANDS  CLEAR     65  42  43 W3        30.05R
PRICE          PTCLDY    63  29  27 N8        30.17R
ST GEORGE      SUNNY     73  45  35 SE5       29.96S
KANAB            N/A     63  41  45 N5        30.15R

$$

REGIONAL REPORTS     COLORADO/ARIZONA

CITY           SKY/WX    TMP DP  RH WIND       PRES   REMARKS
CRAIG, CO      PTCLDY    50  41  71 CALM      30.22R
GRAND JUNCTION CLEAR     61  38  42 E10       30.10R
RIFLE          CLEAR     56  39  53 CALM      30.19R
MONTROSE       CLEAR     61  41  47 SE12      30.20R
CORTEZ         MOCLDY    57  45  64 E3        30.20R
PAGE, AZ       CLEAR     76  44  32 S3        30.05R
GRAND CANYON   CLEAR     51  44  77 CALM      30.25R
KINGMAN        CLEAR     71  45  39 SE6       29.99R
FLAGSTAFF      PTCLDY    52  47  83 CALM      30.29R

$$

REGIONAL REPORTS    NEVADA/IDAHO/WYOMING

CITY           SKY/WX    TMP DP  RH WIND       PRES   REMARKS
LAS VEGAS, NV  CLEAR     86  48  26 S7        29.83R
ELY            PTCLDY    55  33  43 CALM      30.17R
ELKO           CLEAR     57  30  35 CALM      30.10R
POCATELLO, ID  CLEAR     55  36  48 N8        30.06R
BURLEY         PTCLDY    58  37  45 W3        30.03R
EVANSTON, WY   CLEAR     55  33  43 SE8       30.26R
ROCK SPRINGS   PTCLDY    58  24  27 E10       30.25

$$


USA.gov is the U.S. government's official web portal to all federal, state and local government web resources and services.